[[{"header":{"parameterUnit":"m.s-1","parameterCategory":2,"la1":30.2992,"la2":30.254,"lo1":-89.0895,"lo2":-89.0443,"dy":0.0025,"dx":0.0025,"nx":19,"ny":19,"refTime":"2026-03-11T09:00:00:Z","depth":"0","parameterNumber":2,"parameterNumberName":"U-component_of_CURRENTS"},"data":[0,0,0,0.0411,0.0411,0.0407,0.0407,0.037,0.0369,0,0,0,0,0,0,0,0,0,0,0,0.0413,0.0413,0.0411,0.0411,0.0407,0.0407,0.037,0.0369,0,0,0,0,0,0,0,0,0,0,0,0.0413,0.0413,0.0414,0.0411,0.0407,0.0407,0.037,0.0378,0,0,0,0,0,0,0,0,0,0,0.0385,0.0394,0.0413,0.0414,0.0412,0.0407,0.0407,0.0379,0.0378,0.0366,0,0.0374,0,0.0375,0.0367,0.0367,0,0,0,0.0401,0.0396,0.0398,0.0414,0.0412,0.0407,0.0406,0.0379,0.0377,0.0364,0.0374,0.0372,0.0374,0.0367,0.0367,0.0401,0.0402,0,0,0.0401,0.0406,0.0399,0.0397,0.0422,0.0406,0.0406,0.0378,0.0379,0.0374,0.0372,0.0373,0.0367,0.0366,0.04,0.0401,0,0,0,0.0409,0.0406,0.0409,0.0399,0.0403,0.0407,0.0406,0.038,0.0382,0.0371,0.0373,0.0366,0.0366,0.04,0.0401,0.0494,0,0,0,0.0409,0.0411,0.0409,0.0411,0.0404,0.0395,0.0409,0.0384,0.0381,0.0373,0.0366,0.0366,0.0399,0.04,0.049,0.0534,0,0,0,0.0411,0.0411,0.0415,0.0411,0.0414,0.0396,0.0396,0.0383,0.0382,0.0367,0.0365,0.0399,0.04,0.0486,0.0528,0.058,0,0,0,0.0409,0.0431,0.0415,0.0441,0.0415,0.0436,0.0396,0.0402,0.0394,0.0366,0.0399,0.0401,0.0485,0.0524,0.0576,0.0614,0.0635,0,0,0.0438,0.0435,0.0451,0.0437,0.0471,0.0435,0.0472,0.0441,0.0413,0.0402,0.0403,0.0491,0.0527,0.0579,0.07,0.0719,0,0,0,0.0461,0.0473,0.0481,0.0495,0.0499,0.052,0.0486,0.0483,0.0492,0.0417,0.0496,0.0516,0.0545,0.056,0.0575,0.0617,0.0408,0.0407,0.0407,0.0509,0.0512,0.054,0.0547,0.056,0.0574,0.0601,0.0594,0.0542,0.0569,0.0595,0.0703,0.072,0.0732,0.0775,0.0596,0.0596,0.0597,0.0597,0.0559,0.0573,0.058,0.0607,0.0629,0.0655,0.069,0.069,0.0746,0.0682,0.0706,0.0661,0.0754,0.0794,0.0603,0.0602,0.0601,0.06,0.06,0.0594,0.0595,0.0612,0.0645,0.0697,0.0715,0.0803,0.0815,0.0822,0.0879,0.0867,0.0865,0.0896,0.0881,0.0881,0.0882,0.0882,0.0882,0.0883,0.0611,0.0624,0.0667,0.0695,0.0724,0.0792,0.0874,0.0913,0.0956,0.0978,0.0978,0.095,0.0789,0.0773,0.0889,0.0888,0.0887,0.0887,0.0886,0.063,0.0645,0.0709,0.0745,0.084,0.0899,0.0985,0.1108,0.1153,0.1194,0.1147,0.1028,0.1,0.0986,0.0975,0.1137,0.1137,0.1137,0.1137,0.064,0.0653,0.0738,0.0817,0.0904,0.0966,0.1132,0.1244,0.131,0.1342,0.1275,0.1228,0.1215,0.1196,0.1178,0.1168,0.1375,0.1375,0.1376,0.0643,0.0681,0.0729,0.0829,0.0918,0.1033,0.1122,0.1171,0.1335,0.1388,0.1335,0.1325,0.1251,0.1228,0.1186,0.1158,0.1135,0,0]},{"header":{"parameterUnit":"m.s-1","parameterCategory":2,"la1":30.2992,"la2":30.254,"lo1":-89.0895,"lo2":-89.0443,"dy":0.0025,"dx":0.0025,"nx":19,"ny":19,"refTime":"2026-03-11T09:00:00:Z","depth":"0","parameterNumber":3,"parameterNumberName":"V-component_of_CURRENTS"},"data":[0,0,0,-0.146,-0.146,-0.1442,-0.1442,-0.1367,-0.1367,0,0,0,0,0,0,0,0,0,0,0,-0.1465,-0.1465,-0.146,-0.146,-0.1442,-0.1442,-0.1367,-0.1367,0,0,0,0,0,0,0,0,0,0,0,-0.1465,-0.1465,-0.1465,-0.146,-0.1442,-0.1442,-0.1368,-0.1392,0,0,0,0,0,0,0,0,0,0,-0.1415,-0.143,-0.1465,-0.1465,-0.146,-0.1442,-0.1442,-0.1394,-0.1391,-0.1362,0,-0.1364,0,-0.1365,-0.1361,-0.1361,0,0,0,-0.1454,-0.1432,-0.1429,-0.1465,-0.146,-0.1442,-0.1448,-0.1393,-0.1389,-0.1358,-0.1363,-0.1361,-0.1364,-0.136,-0.136,-0.1305,-0.1305,0,0,-0.1455,-0.1457,-0.1432,-0.1427,-0.146,-0.1449,-0.1448,-0.1391,-0.1387,-0.1363,-0.1359,-0.1363,-0.136,-0.1359,-0.1305,-0.1305,0,0,0,-0.1461,-0.1458,-0.1457,-0.1429,-0.1431,-0.1449,-0.1447,-0.1389,-0.1389,-0.1358,-0.1362,-0.1359,-0.1358,-0.1305,-0.1305,-0.1277,0,0,0,-0.1462,-0.1463,-0.1457,-0.1458,-0.1433,-0.1417,-0.1447,-0.1393,-0.1387,-0.1362,-0.1359,-0.1358,-0.1305,-0.1305,-0.1278,-0.1129,0,0,0,-0.1465,-0.1463,-0.1463,-0.1458,-0.1454,-0.1419,-0.1416,-0.1392,-0.1389,-0.1361,-0.1357,-0.1305,-0.1305,-0.1278,-0.1135,-0.1109,0,0,0,-0.1465,-0.1461,-0.1463,-0.1457,-0.1454,-0.144,-0.1416,-0.1401,-0.138,-0.1359,-0.1305,-0.1305,-0.1278,-0.1138,-0.1113,-0.1245,-0.1241,0,0,-0.1459,-0.146,-0.1456,-0.1457,-0.1438,-0.1442,-0.1408,-0.1374,-0.1369,-0.1319,-0.1318,-0.1277,-0.1135,-0.111,-0.125,-0.1245,0,0,0,-0.1453,-0.145,-0.1445,-0.1435,-0.1427,-0.1362,-0.1378,-0.1371,-0.1334,-0.1359,-0.1287,-0.1195,-0.1182,-0.1271,-0.1267,-0.1495,-0.1306,-0.1306,-0.1306,-0.1446,-0.1439,-0.1423,-0.1405,-0.1383,-0.1327,-0.1285,-0.1272,-0.132,-0.131,-0.1187,-0.1142,-0.1243,-0.124,-0.1476,-0.1274,-0.1274,-0.1274,-0.1273,-0.1435,-0.1415,-0.1398,-0.138,-0.1307,-0.1271,-0.1179,-0.1181,-0.1112,-0.1162,-0.1158,-0.125,-0.1234,-0.1487,-0.1272,-0.1272,-0.1272,-0.1272,-0.1273,-0.1429,-0.1409,-0.1411,-0.1359,-0.1281,-0.1198,-0.1093,-0.0991,-0.1003,-0.0959,-0.1083,-0.1086,-0.1291,-0.0992,-0.0991,-0.0991,-0.099,-0.0989,-0.0989,-0.1406,-0.1399,-0.1341,-0.1328,-0.1274,-0.1175,-0.0981,-0.0925,-0.0872,-0.0952,-0.0957,-0.1311,-0.1054,-0.1046,-0.0978,-0.098,-0.0981,-0.0982,-0.0983,-0.1339,-0.1332,-0.1237,-0.119,-0.1098,-0.0934,-0.0906,-0.0858,-0.0849,-0.0892,-0.1308,-0.1007,-0.1002,-0.1009,-0.1,-0.0922,-0.0922,-0.0922,-0.0922,-0.1256,-0.1265,-0.1015,-0.0908,-0.0785,-0.0781,-0.0664,-0.08,-0.1111,-0.1377,-0.1411,-0.1592,-0.1584,-0.1622,-0.1615,-0.1622,-0.1703,-0.1704,-0.1706,-0.1151,-0.1109,-0.0842,-0.0756,-0.0593,-0.0541,-0.0396,-0.0632,-0.1409,-0.1756,-0.1696,-0.1662,-0.1948,-0.1917,-0.1995,-0.1968,-0.1984,0,0]}],[{"header":{"parameterUnit":"m.s-1","parameterCategory":2,"la1":30.2992,"la2":30.254,"lo1":-89.0895,"lo2":-89.0443,"dy":0.0025,"dx":0.0025,"nx":19,"ny":19,"refTime":"2026-03-11T09:00:00:Z","depth":"2","parameterNumber":2,"parameterNumberName":"U-component_of_CURRENTS"},"data":[0,0,0,0.0412,0.0413,0.0408,0.0408,0.0371,0.037,0,0,0,0,0,0,0,0,0,0,0,0.0414,0.0415,0.0412,0.0413,0.0408,0.0408,0.0371,0.037,0,0,0,0,0,0,0,0,0,0,0,0.0414,0.0415,0.0415,0.0413,0.0408,0.0408,0.0371,0.038,0,0,0,0,0,0,0,0,0,0,0.0387,0.0396,0.0414,0.0415,0.0413,0.0408,0.0408,0.038,0.0379,0.0367,0,0.0375,0,0.0376,0.0368,0.0368,0,0,0,0.0402,0.0397,0.0399,0.0415,0.0413,0.0408,0.0407,0.038,0.0378,0.0365,0.0375,0.0374,0.0375,0.0368,0.0368,0.0402,0.0403,0,0,0.0403,0.0407,0.04,0.0398,0.0423,0.0408,0.0407,0.0379,0.038,0.0375,0.0373,0.0375,0.0368,0.0367,0.0402,0.0402,0,0,0,0.041,0.0407,0.041,0.04,0.0404,0.0408,0.0407,0.0381,0.0383,0.0373,0.0374,0.0368,0.0367,0.0401,0.0402,0.0495,0,0,0,0.041,0.0412,0.041,0.0412,0.0405,0.0397,0.041,0.0385,0.0382,0.0374,0.0368,0.0367,0.04,0.0402,0.0491,0.0535,0,0,0,0.0413,0.0412,0.0416,0.0412,0.0416,0.0397,0.0397,0.0385,0.0383,0.0368,0.0367,0.04,0.0401,0.0487,0.0529,0.0582,0,0,0,0.041,0.0433,0.0417,0.0442,0.0416,0.0437,0.0398,0.0403,0.0395,0.0367,0.04,0.0402,0.0486,0.0525,0.0578,0.0609,0.063,0,0,0.0439,0.0436,0.0452,0.0438,0.0472,0.0436,0.0473,0.0443,0.0414,0.0403,0.0404,0.0492,0.0528,0.0581,0.0696,0.0714,0,0,0,0.0462,0.0475,0.0482,0.0497,0.0501,0.0521,0.0487,0.0484,0.0493,0.0419,0.0497,0.0517,0.0547,0.0557,0.0572,0.0409,0.0409,0.0409,0.0409,0.051,0.0513,0.0541,0.0548,0.0561,0.0576,0.0602,0.0595,0.0543,0.057,0.0596,0.0705,0.0717,0.0729,0.0597,0.0597,0.0597,0.0598,0.0598,0.056,0.0574,0.0581,0.0608,0.063,0.0657,0.0691,0.0691,0.0747,0.0683,0.0708,0.0659,0.0751,0.0605,0.0604,0.0603,0.0602,0.0602,0.0601,0.0595,0.0597,0.0613,0.0646,0.0698,0.0716,0.0804,0.0816,0.0824,0.0881,0.0865,0.0863,0.0759,0.0883,0.0883,0.0884,0.0884,0.0884,0.0885,0.0613,0.0625,0.0669,0.0696,0.0725,0.0793,0.0875,0.0915,0.0955,0.0976,0.0975,0.08,0.0791,0.0775,0.0892,0.0891,0.089,0.0889,0.0888,0.0631,0.0647,0.071,0.0746,0.0841,0.0897,0.098,0.1101,0.1151,0.1191,0.1029,0.1023,0.0995,0.0981,0.0969,0.113,0.113,0.113,0.113,0.0641,0.0654,0.0738,0.0818,0.0905,0.0963,0.1106,0.1143,0.1161,0.1093,0.1094,0.1027,0.102,0.0986,0.0973,0.0958,0.1115,0.1115,0.1114,0.0644,0.0682,0.073,0.0829,0.0918,0.1027,0.1069,0.1031,0.0993,0.1107,0.1022,0.1142,0.1044,0.1032,0.0975,0.0956,0.0929,0,0]},{"header":{"parameterUnit":"m.s-1","parameterCategory":2,"la1":30.2992,"la2":30.254,"lo1":-89.0895,"lo2":-89.0443,"dy":0.0025,"dx":0.0025,"nx":19,"ny":19,"refTime":"2026-03-11T09:00:00:Z","depth":"2","parameterNumber":3,"parameterNumberName":"V-component_of_CURRENTS"},"data":[0,0,0,-0.1429,-0.1429,-0.1412,-0.1412,-0.1336,-0.1335,0,0,0,0,0,0,0,0,0,0,0,-0.1434,-0.1434,-0.1429,-0.1429,-0.1412,-0.1412,-0.1336,-0.1335,0,0,0,0,0,0,0,0,0,0,0,-0.1434,-0.1434,-0.1434,-0.1429,-0.1412,-0.1412,-0.1336,-0.1361,0,0,0,0,0,0,0,0,0,0,-0.1384,-0.1398,-0.1434,-0.1434,-0.1429,-0.1412,-0.1412,-0.1363,-0.1359,-0.133,0,-0.1333,0,-0.1334,-0.133,-0.1329,0,0,0,-0.1423,-0.1401,-0.1398,-0.1434,-0.1429,-0.1412,-0.1418,-0.1361,-0.1358,-0.1326,-0.1332,-0.1329,-0.1332,-0.1329,-0.1329,-0.1273,-0.1273,0,0,-0.1424,-0.1426,-0.1401,-0.1396,-0.1429,-0.1418,-0.1417,-0.136,-0.1355,-0.1331,-0.1328,-0.1331,-0.1328,-0.1328,-0.1273,-0.1273,0,0,0,-0.143,-0.1427,-0.1426,-0.1398,-0.14,-0.1418,-0.1417,-0.1358,-0.1358,-0.1327,-0.133,-0.1328,-0.1327,-0.1273,-0.1273,-0.1246,0,0,0,-0.1431,-0.1432,-0.1427,-0.1427,-0.1402,-0.1386,-0.1416,-0.1362,-0.1356,-0.1331,-0.1328,-0.1326,-0.1273,-0.1273,-0.1247,-0.1098,0,0,0,-0.1434,-0.1432,-0.1432,-0.1428,-0.1424,-0.1388,-0.1385,-0.1361,-0.1358,-0.1329,-0.1326,-0.1273,-0.1273,-0.1247,-0.1103,-0.1071,0,0,0,-0.1434,-0.143,-0.1432,-0.1426,-0.1424,-0.141,-0.1385,-0.137,-0.1349,-0.1327,-0.1273,-0.1273,-0.1247,-0.1107,-0.1075,-0.1096,-0.1082,0,0,-0.1428,-0.1429,-0.1425,-0.1427,-0.1407,-0.1411,-0.1378,-0.1343,-0.1338,-0.1287,-0.1286,-0.1246,-0.1104,-0.1072,-0.1101,-0.1086,0,0,0,-0.1422,-0.1419,-0.1414,-0.1404,-0.1396,-0.1331,-0.1347,-0.134,-0.1303,-0.1327,-0.1256,-0.1163,-0.1146,-0.1168,-0.1157,-0.1273,-0.1273,-0.1273,-0.1273,-0.1416,-0.1408,-0.1392,-0.1374,-0.1352,-0.1296,-0.1254,-0.1241,-0.1288,-0.1279,-0.1156,-0.1107,-0.1136,-0.1126,-0.1243,-0.1243,-0.1243,-0.1243,-0.1243,-0.1404,-0.1385,-0.1367,-0.1349,-0.1276,-0.1241,-0.1148,-0.115,-0.1079,-0.1131,-0.1123,-0.1151,-0.1112,-0.1241,-0.1241,-0.1241,-0.1242,-0.1242,-0.1242,-0.14,-0.1379,-0.1381,-0.1329,-0.1251,-0.1168,-0.1062,-0.0958,-0.0969,-0.0924,-0.0968,-0.097,-0.1026,-0.0953,-0.0952,-0.0951,-0.0951,-0.095,-0.095,-0.1376,-0.137,-0.1312,-0.1299,-0.1244,-0.1145,-0.0948,-0.0886,-0.078,-0.0827,-0.0831,-0.1007,-0.1016,-0.1007,-0.0938,-0.094,-0.0942,-0.0943,-0.0943,-0.1311,-0.1304,-0.1209,-0.1162,-0.107,-0.0883,-0.0846,-0.0747,-0.0739,-0.0746,-0.0822,-0.0829,-0.081,-0.0822,-0.0808,-0.069,-0.069,-0.069,-0.069,-0.1229,-0.1238,-0.0985,-0.0877,-0.0751,-0.0724,-0.0476,-0.0304,-0.0343,-0.0202,-0.0221,-0.0302,-0.0328,-0.0285,-0.0309,-0.0285,-0.0029,-0.0027,-0.0025,-0.1124,-0.1082,-0.081,-0.0723,-0.0553,-0.0462,-0.0051,0.0061,0.0043,0.0024,0.0129,-0.0691,-0.0877,-0.089,-0.0884,-0.0899,-0.0886,0,0]}],[{"header":{"parameterUnit":"m.s-1","parameterCategory":2,"la1":30.2992,"la2":30.254,"lo1":-89.0895,"lo2":-89.0443,"dy":0.0025,"dx":0.0025,"nx":19,"ny":19,"refTime":"2026-03-11T09:00:00:Z","depth":"4","parameterNumber":2,"parameterNumberName":"U-component_of_CURRENTS"},"data":[0,0,0,0.0268,0.027,0.0321,0.0321,0.0385,0.0386,0,0,0,0,0,0,0,0,0,0,0,0.0249,0.025,0.0268,0.027,0.0321,0.0321,0.0385,0.0386,0,0,0,0,0,0,0,0,0,0,0,0.0249,0.025,0.025,0.027,0.0321,0.0321,0.0385,0.0346,0,0,0,0,0,0,0,0,0,0,0.0296,0.0285,0.025,0.025,0.027,0.0321,0.0321,0.0344,0.0348,0.0362,0,0.0373,0,0.0383,0.039,0.039,0,0,0,0.0267,0.0281,0.0291,0.025,0.0271,0.0321,0.0297,0.0346,0.0351,0.0368,0.0373,0.0376,0.0384,0.039,0.0391,0.0479,0.0479,0,0,0.0264,0.0263,0.0288,0.0294,0.0288,0.0296,0.0299,0.0349,0.0359,0.0374,0.0378,0.0385,0.0391,0.0391,0.0478,0.0479,0,0,0,0.0258,0.0261,0.027,0.0291,0.0302,0.0297,0.0301,0.0356,0.0358,0.0378,0.0386,0.0391,0.0392,0.0478,0.0479,0.0558,0,0,0,0.0256,0.0257,0.0268,0.0269,0.0301,0.0332,0.0307,0.0355,0.0361,0.0385,0.0391,0.0393,0.0477,0.0478,0.0554,0.0579,0,0,0,0.0246,0.0257,0.0262,0.0268,0.0291,0.0331,0.0336,0.0356,0.0365,0.039,0.0393,0.0477,0.0478,0.0551,0.0574,0.0651,0,0,0,0.0243,0.0262,0.0263,0.0284,0.0291,0.0333,0.0336,0.0384,0.041,0.0392,0.0478,0.0479,0.055,0.0571,0.0648,0.0463,0,0,0,0.0263,0.0264,0.0275,0.0277,0.032,0.0325,0.0391,0.0433,0.0429,0.0459,0.0461,0.0555,0.0574,0.065,0.053,0,0,0,0,0.0278,0.0288,0.03,0.0325,0.0352,0.0409,0.0443,0.0463,0.0519,0.0449,0.0556,0.0565,0.0611,0.0492,0.0484,0.0484,0.0484,0.0484,0.0484,0.0312,0.0317,0.0344,0.0369,0.0404,0.0478,0.0525,0.056,0.0558,0.06,0.063,0.074,0.0616,0.0635,0.0635,0.0636,0.0636,0.0636,0.0636,0.034,0.0345,0.0374,0.0406,0.0467,0.053,0.0611,0.0645,0.0739,0.0697,0.074,0.0583,0.0644,0.0643,0.0641,0.064,0.064,0.0639,0.0639,0.0355,0.0354,0.0382,0.0433,0.0501,0.0574,0.0662,0.0738,0.0798,0.0857,0.0757,0.0802,0.0796,0.0904,0.0904,0.0905,0.0905,0.0906,0.0906,0.0348,0.0369,0.0401,0.0454,0.0494,0.0574,0.0707,0.074,0.082,0.0824,0.0901,0.083,0.0822,0.0812,0.0913,0.0912,0.0911,0.091,0.091,0.0332,0.0345,0.0397,0.0437,0.0509,0.0553,0.0671,0.0713,0.0782,0.0774,0.0805,0.0808,0.0767,0.076,0.0746,0.0832,0.083,0.0828,0,0.0306,0.0319,0.0375,0.0429,0.048,0.0536,0.0572,0.0611,0.0686,0.0706,0.0787,0.0826,0.0826,0.0776,0.0767,0.0748,0,0,0,0.0276,0.0306,0.0338,0.0403,0.0456,0.0489,0.0576,0.0587,0.0693,0.061,0.0779,0.0792,0.0716,0.0935,0.0879,0.0868,0.0849,0,0]},{"header":{"parameterUnit":"m.s-1","parameterCategory":2,"la1":30.2992,"la2":30.254,"lo1":-89.0895,"lo2":-89.0443,"dy":0.0025,"dx":0.0025,"nx":19,"ny":19,"refTime":"2026-03-11T09:00:00:Z","depth":"4","parameterNumber":3,"parameterNumberName":"V-component_of_CURRENTS"},"data":[0,0,0,0.0808,0.0809,0.0837,0.0838,0.0868,0.0868,0,0,0,0,0,0,0,0,0,0,0,0.0806,0.0807,0.0808,0.0809,0.0837,0.0838,0.0868,0.0868,0,0,0,0,0,0,0,0,0,0,0,0.0806,0.0807,0.0807,0.0809,0.0837,0.0838,0.0868,0.0848,0,0,0,0,0,0,0,0,0,0,0.0821,0.0825,0.0807,0.0807,0.0809,0.0837,0.0838,0.0847,0.0849,0.0852,0,0.0864,0,0.0863,0.087,0.087,0,0,0,0.081,0.0823,0.0825,0.0807,0.0809,0.0837,0.0825,0.0848,0.0851,0.0855,0.0864,0.0865,0.0863,0.087,0.087,0.0886,0.0886,0,0,0.0808,0.0816,0.0823,0.0826,0.0826,0.0824,0.0826,0.085,0.086,0.0865,0.0866,0.0864,0.087,0.087,0.0886,0.0886,0,0,0,0.0803,0.0815,0.0816,0.0825,0.0829,0.0825,0.0827,0.0859,0.0858,0.0866,0.0864,0.087,0.087,0.0886,0.0886,0.0839,0,0,0,0.0802,0.0811,0.0816,0.0821,0.0829,0.0846,0.0836,0.0857,0.0859,0.0864,0.087,0.0871,0.0886,0.0886,0.084,0.072,0,0,0,0.0803,0.0811,0.0816,0.0821,0.0831,0.0845,0.0846,0.0857,0.0857,0.087,0.0871,0.0886,0.0886,0.0841,0.0726,0.082,0,0,0,0.0807,0.0824,0.0817,0.0837,0.0831,0.0847,0.0846,0.0862,0.0873,0.087,0.0886,0.0886,0.0841,0.0729,0.0821,0.0872,0,0,0,0.0826,0.0827,0.0836,0.083,0.0853,0.0843,0.0843,0.0856,0.0872,0.0878,0.0879,0.0839,0.0726,0.082,0.0869,0,0,0,0,0.0841,0.0853,0.0856,0.0872,0.0875,0.0828,0.0868,0.087,0.0871,0.0878,0.0852,0.078,0.0843,0.0877,0.0886,0.0886,0.0886,0.0886,0.0886,0.088,0.088,0.0901,0.0902,0.091,0.084,0.0802,0.0805,0.0866,0.0866,0.0756,0.0791,0.0826,0.0824,0.0824,0.0824,0.0824,0.0824,0.0824,0.0909,0.092,0.093,0.0952,0.0897,0.0898,0.0782,0.0755,0.0729,0.0747,0.0817,0.0835,0.0819,0.082,0.0821,0.0821,0.0822,0.0822,0.0822,0.0933,0.0936,0.0959,0.0993,0.0976,0.0899,0.0841,0.0683,0.0663,0.0621,0.0778,0.0768,0.0763,0.0725,0.0725,0.0725,0.0725,0.0725,0.0725,0.0941,0.0959,0.0982,0.103,0.1082,0.1019,0.0849,0.0821,0.069,0.0659,0.0618,0.0759,0.0762,0.0758,0.0723,0.0724,0.0724,0.0724,0.0724,0.0946,0.0945,0.0987,0.1035,0.1098,0.1085,0.099,0.089,0.0856,0.083,0.0754,0.0753,0.078,0.0783,0.0781,0.075,0.0751,0.0751,0,0.0929,0.0934,0.0939,0.1004,0.1023,0.107,0.0996,0.0948,0.0849,0.0793,0.0846,0.0758,0.0757,0.0789,0.0792,0.0791,0,0,0,0.0904,0.0915,0.0886,0.0937,0.1001,0.0947,0.0939,0.0928,0.0833,0.0897,0.0765,0.0761,0.0887,0.0718,0.0757,0.0761,0.0757,0,0]}]]